Tracking 23731 objects as of 27-Sep-2021
HD Live streaming from Space Station
objects crossing your sky now

CZ-4B R/B

Track CZ-4B R/B now!
10-day predictions


NORAD ID: 38039
Int'l Code: 2011-079B
Perigee: 471.4 km
Apogee: 719.2 km
Inclination: 98.5 °
Period: 96.4 minutes
Semi major axis: 6966 km
RCS: 9.5146 m2 (large)
Launch date: December 22, 2011
Source: People's Republic of China (PRC)
Launch site: Taiyaun Space Center, China (TSC)

Note: This is a ROCKET BODY
aabbcc
Your satellite tracking list
Your tracking list is empty




NASA's NSSDC Master Catalog

Two Line Element Set (TLE):
1 38039U 11079B   21270.49457661  .00000512  00000-0  42388-4 0  9992
2 38039  98.5159 289.3942 0177912 309.1443  49.4076 14.93140402531085
Source of the keplerian elements: AFSPC